COSMOS 2247

Satellite information

Favourite Embed

Satellite Type and Status

PAYLOADIN ORBIT

Key statistics

Satellite COSMOS 2247 at a glance.

Uptime

11905

Days in orbit

Revolutions

≈ 12.6

Per day

Orbit

LEO

Low Earth Orbit

Inclination

82.6

Latest

Satellite identification and parameters

Extended collection of information and parameters for COSMOS 2247.

Object identification

Identified? True

Debris? False

Object name: COSMOS 2247

International designator: 1993-030C

Object number (NORAD): 22648

Object ID (CCSDS): 22648

Country: COMMONWEALTH OF INDEPENDENT STATES (CIS)

Current information (Y/N): Y

RCS size: LARGE

Orbital parameters

Period: 113.99 minutes

Inclination: 82.5801 deg

SMA: 7787.601 km

Apoapsis: 1415.642 km

Periapsis: 1403.29 km

RAAN: 75.4604 deg

Eccentricy: 0.00079307

Argument of periapsis: 9.9909 deg

Mean anomaly: 57.5698 deg

Mean motion: 12.63272977 rev/day

Mean motion (dot): 0.00000035 rev/day2

B* drag term: 0.00013320564 1/REarth

Two-line elements (TLE)

Creation date: Dec. 12, 2025, 10:14 a.m.

Reference frame: TEME

Reference center: EARTH

Epoch: Dec. 12, 2025, 7:12 a.m. UTC

TLE line 0: 0 COSMOS 2247

TLE line 1: 1 22648U 93030C 25346.30056449 .00000035 00000-0 13321-3 0 9999

TLE line 2: 2 22648 82.5801 75.4604 0007931 9.9909 57.5698 12.63272977502485

Live tracking on map

Real-time ground track for satellite COSMOS 2247.

In-orbit conjunctions

A list of the most updated potential collisions computed for object COSMOS 2247.

Target Orbit TCA Probability of collision Miss distance Type
COSMOS 2249 LEO 2025-07-16 04:09:49 0.001362048 245.0 (m) PAYLOAD

Associated space launch

Second generation store-dump military communications satellite

COSMOS 2247 was lifted into orbit during the mission ‘Tsiklon-3 | Strela-3 89 to 94’, on board a Tsiklon-3 space rocket.

The launch took place on May 11, 1993, 2:56 p.m. from 32/1.

For more information about the launch, click the button.

Launch to space Tsiklon-3 | Strela-3 89 to 94
Tsiklon-3 | Strela-3 89 to 94

Agency: N/A

Status: Launch Successful

Launch date: May 11, 1993, 2:56 p.m. UTC

Rocket: Tsiklon-3

Launch pad: 32/1

Location: Plesetsk Cosmodrome, Russian Federation

...

Latest news about this satellite

There are no fresh news available about this satellite. Check back as we update our databases every day.


Newsletter sign-up

Weekly statistics, charts and insights to help you stay on top of the space industry.